Weather in Nikolaevka

Russia / Republic of Mordovia     54°08′45″N   45°08′36″E
temp.,
°C
wind,
m/s
gust,
m/s
humid.,
%
clouds,
%
prec.,
mm/h
press.,
hPa
HPBL,
m
7 march, sun
sun700:00−13wnw129890 0.1 101321
03:00−15w229763 0.1 101320
06:00−16sw33951 0.0 101323
09:00−12sw599526 0.0 1012264
12:00−8sw7128699 0.0 1009660
15:00−7ssw91589100 0.1 1005847
18:00−6sw91594100 1.0 10011067
21:00−5sw101692100 2.0 9981012
8 march, mon
mon800:00−4sw91694100 0.5 993919
03:00−4wsw101679100 0.9 993839
06:00−9wsw7159226 0.0 996598
09:00−8wsw8148759 0.1 1000707
12:00−6wsw7108773 0.0 1001730
15:00−5wsw698484 0.0 10011001
18:00−7sw389190 0.1 1001150
21:00−9wsw5119394 0.1 1003296
9 march, tue
tue900:00−12w5109345 0.0 1004203
03:00−16w479741 0.0 100795
06:00−17w349877 0.0 100955
09:00−15wnw369684 0.1 1010212
12:00−11wnw3592100 0.1 1011364
15:00−10nw3589100 0.1 1012627
18:00−12nnw2396100 0.1 101370
21:00−14nnw3697100 0.4 1015171
10 march, wed
wed1000:00−20nw349974 0.0 101659
03:00−21nw359984 0.1 1017110
06:00−21nw3698100 0.1 1019184
09:00−20nnw4795100 0.2 1021353
12:00−19nnw5693100 0.0 1022446
15:00−19nnw588899 0.1 1022583
18:00−23nnw339689 0.0 102429
21:00−26nw2310076 0.0 102619
11 march, thu
thu1100:00−27wnw239812 0.0 102721
03:00−26w33968 0.0 102729
06:00−25w489648 0.0 1028131
09:00−21wnw599360 0.0 1028270
12:00−16wnw59870 0.0 1027343
15:00−12w59840 0.0 1027428
18:00−16w44900 0.0 102872
21:00−18wsw34920 0.0 103067